Regional Weather Roundup
Issued by NWS

Home | Current Version | Previous Version | Text Only | Print | Product List | Glossary On
Versions: 1 2 3 4 5 6 7 8 9 10 11 12 13 14 15 16 17 18 19 20 21 22 23 24 25 26 27 28 29 30 31 32 33 34 35 36 37 38 39 40 41 42 43 44 45 46 47 48 49 50
564
ASUS44 KMEG 301310
RWRTN
TENNESSEE HOURLY STATE WEATHER ROUNDUP
NATIONAL WEATHER SERVICE MEMPHIS TN
800 AM CDT SAT JUL 30 2016

TNZ002-004-019-021-049-052-054-088>092-301400-
WEST TENNESSEE

CITY           SKY/WX    TMP DP  RH WIND       PRES   REMARKS
MEMPHIS INTL   TSTM      75  72  88 N5        30.01R FOG
NWS MEMPHIS      N/A     72 N/A N/A MISG        N/A
JACKSON        CLOUDY    73  72  96 CALM      30.01F FOG
DYERSBURG      MOSUNNY   75  72  88 CALM      30.00
UNION CITY     CLOUDY    73  73 100 CALM      29.98F
PARIS          CLOUDY    70  70 100 W6        30.01F
LEXINGTON      CLOUDY    72  72 100 SW3       30.01F
$$

TNZ008-025-027-028-033-062-065-066-301400-
NORTH MIDDLE TENNESSEE

CITY           SKY/WX    TMP DP  RH WIND       PRES   REMARKS
NASHVILLE      CLOUDY    75  71  87 SW5       30.02R
CLARKSVILLE    CLOUDY    74  71  91 SW5       30.00R
SMYRNA         CLOUDY    74  72  93 SW3       30.03R FOG
COOKEVILLE     CLOUDY    73  72  94 SW3       30.03S
CROSSVILLE     PTSUNNY   72  68  87 W8        30.08S
$$

TNZ061-075-076-078-094-096-097-301400-
SOUTH MIDDLE TENNESSEE

CITY           SKY/WX    TMP DP  RH WIND       PRES   REMARKS
TULLAHOMA      SUNNY     75  70  83 SW3       30.07R
WINCHESTER     MOSUNNY   73  70  88 CALM      30.06S
MCMINNVILLE    SUNNY     75  73  94 SW5       30.05R
COLUMBIA       MOSUNNY  N/A N/A N/A SW6       30.02R
SHELBYVILLE    CLOUDY    73  72  94 S5        30.05R
$$

TNZ017-018-042-046-047-301400-
NORTHEAST TENNESSEE

CITY           SKY/WX    TMP DP  RH WIND       PRES   REMARKS
TRI CITIES     CLOUDY    72  69  90 CALM      30.07R FOG
$$

TNZ012-013-036-069-073-074-301400-
CENTRAL EAST TENNESSEE

CITY           SKY/WX    TMP DP  RH WIND       PRES   REMARKS
KNOXVILLE      LGT RAIN  74  71  91 VRB5      30.03R
OAK RIDGE      CLOUDY    75  70  84 S3        30.04S
GATLINBURG     PTSUNNY   72  70  94 CALM      30.04R
$$

TNZ083-085-099-301400-
SOUTHEAST TENNESSEE

CITY           SKY/WX    TMP DP  RH WIND       PRES   REMARKS
CHATTANOOGA    PTSUNNY   79  71  76 CALM      30.03R
$$

SKY/WX REPORTED AS FAIR MEANS FEW OR NO CLOUDS BELOW
12 THOUSAND FEET.





USA.gov is the U.S. government's official web portal to all federal, state and local government web resources and services.